Wind_Speed
10 7 5 5 5 6 7 10 12 15 17 19 21 23 24 25 26 28 28 28 29 29 30 30 30 30 32 32 32 31 32 32 32 32 32 32 32 32 32 33 33 32 30
12 10 8 6 4 3 3 5 7 10 12 14 16 18 20 21 22 24 25 26 28 29 29 30 30 29 30 30 30 30 31 31 31 31 31 30 30 30 31 31 30 29 28
13 13 12 9 7 4 3 2 3 4 7 8 10 12 15 17 19 20 21 23 24 25 26 27 28 29 29 29 30 31 31 30 30 31 30 30 30 30 30 29 28 27 26
16 15 14 13 11 9 6 4 3 2 3 4 5 8 11 13 16 17 18 20 21 22 23 24 25 26 26 27 28 28 29 29 29 29 29 29 29 29 29 28 26 26 25
18 17 16 15 14 12 10 8 5 3 2 3 5 6 8 10 12 13 15 16 17 19 20 20 22 22 23 24 25 25 25 25 25 25 25 25 24 24 24 23 22 22 23
18 18 17 16 15 14 12 10 8 7 5 4 4 4 4 6 8 10 11 12 13 14 15 16 16 18 19 20 20 20 21 21 21 21 22 21 20 20 19 19 20 20 21
19 18 17 17 16 15 14 13 12 10 9 8 6 5 4 4 4 6 7 9 10 12 12 12 13 13 14 15 16 17 17 16 16 17 17 17 17 18 18 19 19 20 21
20 19 18 17 17 16 15 14 14 12 11 10 8 7 5 3 3 3 4 5 7 8 9 9 10 11 11 11 12 13 14 14 14 15 15 16 16 17 18 18 19 19 19
20 20 19 18 17 17 16 15 15 14 13 11 10 9 8 5 3 2 2 4 5 6 7 8 8 9 10 10 11 12 13 13 12 12 13 13 14 15 15 16 16 16 17
21 20 20 19 19 18 17 17 16 15 14 13 12 11 10 8 5 3 1 1 3 4 5 6 7 7 8 8 9 10 11 12 12 12 13 13 13 13 14 14 14 14 14
21 21 20 20 19 19 18 17 17 16 15 14 13 13 12 10 8 6 4 2 1 2 3 4 5 6 7 7 8 8 10 10 11 11 12 12 12 12 12 12 13 13 13
21 21 21 20 20 20 19 18 17 17 16 15 15 14 13 12 11 9 7 5 3 2 1 1 2 4 4 5 6 7 8 9 9 10 10 10 11 11 11 11 11 11 11
20 21 21 21 20 20 20 19 18 17 17 16 16 15 14 13 12 11 10 7 5 3 2 1 1 2 3 4 4 5 5 6 7 8 8 8 9 9 9 9 10 10 10
20 20 20 20 20 20 20 19 19 18 18 17 17 16 15 15 14 13 12 10 8 6 5 3 2 1 2 3 4 4 4 4 5 6 6 7 7 7 7 7 7 7 8
19 19 20 20 20 20 20 19 19 19 18 18 17 17 16 15 15 14 13 12 11 9 8 7 5 4 3 3 3 3 3 3 4 4 5 5 6 6 6 5 5 5 5
18 18 18 19 19 19 19 19 18 18 18 18 18 17 17 16 16 15 14 13 12 11 10 9 7 6 5 4 4 3 3 3 3 3 4 4 5 5 5 4 4 4 4
16 16 17 17 18 19 19 19 18 18 17 17 17 17 17 17 16 16 15 14 14 13 12 12 11 10 8 7 6 6 5 5 5 4 4 4 4 4 4 4 4 3 3
14 15 15 15 16 17 17 18 18 17 17 17 17 16 16 16 16 16 16 15 15 14 14 13 13 12 11 10 9 8 8 7 7 6 6 6 5 5 5 5 4 3 3
13 13 14 14 14 15 15 16 16 16 16 16 16 16 16 15 15 15 15 15 14 14 14 14 13 13 12 12 11 10 9 8 8 8 8 7 7 6 6 5 4 3 3
12 12 13 13 13 13 13 13 14 14 15 15 15 15 15 14 14 14 14 13 13 13 13 13 12 12 12 12 11 11 10 10 9 9 8 8 7 6 5 5 4 3 3
11 11 11 12 12 12 12 12 12 12 13 13 13 13 13 13 13 13 12 12 12 12 12 11 11 11 10 10 10 10 10 10 9 9 8 7 6 6 5 4 4 4 3
10 10 10 11 11 11 11 11 11 11 10 11 11 11 12 12 11 11 11 11 11 11 11 10 10 10 9 9 9 8 8 8 7 7 7 6 6 5 4 4 4 3 3
11 11 10 10 10 10 10 10 10 10 10 9 9 9 10 10 10 9 9 8 8 8 8 9 8 8 8 8 7 7 7 6 6 5 5 4 4 3 3 3 3 3 2
12 12 11 11 11 11 10 10 10 10 9 9 8 8 8 8 8 8 7 6 6 6 6 6 6 6 6 6 6 5 5 4 4 4 3 3 3 3 3 2 2 1 1
14 14 13 13 12 12 12 11 11 10 10 10 9 9 8 8 7 7 7 6 5 5 4 3 3 3 3 3 3 3 3 2 2 2 1 1 1 1 0 0 1 2 2
17 16 16 15 15 14 14 13 13 12 12 11 11 11 10 10 9 8 8 7 7 6 6 5 5 4 4 4 3 3 3 3 3 3 2 2 2 2 3 3 4 4 5
Wind_Direction
11 359 338 319 298 275 265 261 255 248 244 241 241 243 246 247 245 245 245 243 243 244 245 247 248 248 247 246 246 247 249 252 253 254 253 253 250 250 249 249 248 248 247
32 28 24 12 354 315 291 274 263 253 247 246 244 243 244 244 245 247 247 245 246 246 247 247 247 246 247 247 246 248 250 250 251 251 251 250 249 248 249 246 247 246 247
36 36 35 35 34 27 12 341 302 271 255 249 249 246 246 247 248 249 249 248 248 248 248 247 246 245 245 246 248 250 248 248 250 250 249 250 250 248 247 246 247 247 246
42 44 44 43 41 38 37 29 4 319 280 262 253 254 252 250 250 249 250 250 249 247 247 246 245 244 244 245 246 247 246 247 247 246 247 248 249 247 245 245 246 246 246
44 44 44 44 43 44 43 40 34 18 338 294 280 267 259 251 248 247 250 248 245 246 246 243 239 238 240 240 242 243 243 243 242 242 243 246 246 244 243 244 245 247 248
42 42 42 41 39 40 40 39 37 29 16 351 320 293 279 260 251 249 249 245 241 240 239 237 237 235 234 234 238 238 239 238 240 241 241 240 241 241 242 243 245 248 252
39 38 37 37 36 35 34 35 33 28 21 13 5 346 317 297 275 255 250 244 235 231 232 236 237 233 230 233 234 234 234 233 236 236 237 241 243 243 243 245 248 251 254
37 37 35 34 34 34 33 30 27 24 23 19 15 8 357 348 327 288 262 251 238 228 230 232 233 233 229 226 227 230 230 231 232 231 233 237 240 243 245 247 250 253 255
37 36 35 35 34 33 32 29 26 25 25 24 22 17 14 9 0 337 276 263 255 241 242 240 234 229 228 225 223 223 224 223 224 230 232 235 236 239 242 247 250 253 256
36 36 35 35 34 33 31 29 28 28 28 27 27 25 23 23 24 21 347 288 255 247 243 238 232 226 224 223 222 224 224 226 229 233 236 238 240 242 243 247 251 253 256
37 36 35 34 33 32 31 31 30 30 31 31 30 30 32 34 34 31 26 9 312 265 249 239 233 229 222 223 218 219 222 226 229 232 235 237 238 240 241 245 248 252 256
36 35 35 34 33 33 32 32 32 33 33 34 34 34 34 35 36 35 35 33 22 6 301 236 225 221 215 214 214 215 221 224 226 228 231 234 237 239 241 244 246 248 251
35 35 35 34 34 34 34 35 35 36 37 37 37 37 37 38 38 38 39 40 39 42 55 83 165 191 194 195 201 209 213 217 222 224 226 230 234 235 238 241 243 245 248
34 35 35 34 34 35 35 36 37 38 38 38 39 39 40 41 42 42 42 45 49 56 65 73 96 151 167 178 185 198 213 218 218 218 224 230 231 229 233 236 239 243 245
33 33 34 34 35 35 35 36 37 38 38 39 40 41 41 42 42 42 44 48 54 59 65 71 82 100 123 136 150 167 184 194 200 210 215 217 215 216 220 224 228 228 230
31 31 32 33 34 34 35 35 36 37 38 39 40 42 43 43 43 43 46 48 50 55 62 68 76 84 94 106 115 125 136 152 161 169 177 187 192 195 199 204 206 207 211
26 28 30 31 32 33 33 34 35 36 37 38 40 41 43 44 45 46 49 52 55 57 61 65 70 77 83 90 98 103 108 116 124 130 134 145 155 161 163 166 170 175 183
20 22 25 27 29 30 32 33 34 35 36 37 39 40 41 44 46 48 51 54 57 60 62 65 68 72 77 83 90 96 99 100 104 107 112 124 133 138 141 140 141 146 152
13 15 17 20 23 26 28 29 31 33 34 36 37 39 40 41 44 48 50 53 56 59 61 63 65 69 73 78 83 87 90 94 97 103 108 113 119 123 126 128 128 128 130
5 8 11 13 14 17 20 22 25 28 30 32 34 36 38 40 42 45 47 50 52 55 57 60 64 68 73 78 80 82 83 88 95 101 105 107 109 114 116 116 116 116 112
353 357 1 4 7 8 10 13 16 20 24 27 29 31 34 36 38 41 44 47 50 53 57 60 62 66 71 77 80 81 82 85 90 94 98 101 103 104 104 103 102 101 98
340 344 348 352 355 358 360 2 5 9 12 17 21 24 28 31 33 37 40 45 48 51 54 57 60 63 66 70 74 77 81 84 87 89 92 95 98 100 101 101 100 98 99
325 329 332 336 341 344 346 348 350 354 358 3 6 11 14 19 23 28 32 36 42 48 51 52 55 59 62 66 70 74 78 80 82 84 86 88 90 92 97 103 103 99 91
310 313 316 320 323 328 332 334 335 336 338 342 347 351 354 358 3 7 12 17 22 30 37 42 47 52 54 56 58 61 64 68 70 73 78 82 88 96 102 103 95 74 41
298 301 303 305 307 310 313 316 319 321 322 322 324 326 329 332 334 337 341 344 347 350 356 3 12 19 25 29 30 31 32 34 37 39 40 50 64 75 65 360 328 323 322
289 291 293 294 296 296 298 300 303 305 306 307 308 309 310 310 310 310 310 310 311 310 310 309 307 306 304 304 308 311 313 313 317 317 311 303 297 296 298 300 303 305 307
Height
5781 5779 5778 5777 5776 5776 5775 5775 5776 5776 5777 5778 5780 5782 5783 5785 5787 5790 5792 5794 5796 5798 5800 5802 5804 5806 5807 5809 5811 5813 5815 5816 5817 5818 5820 5821 5823 5824 5826 5827 5829 5830 5832
5783 5780 5778 5777 5776 5775 5774 5774 5774 5773 5774 5775 5776 5777 5779 5780 5782 5783 5785 5787 5789 5791 5793 5794 5796 5798 5800 5801 5803 5805 5807 5808 5810 5811 5812 5813 5815 5817 5818 5820 5821 5823 5825
5785 5782 5780 5778 5776 5775 5774 5773 5773 5772 5772 5772 5773 5774 5775 5776 5777 5778 5779 5781 5782 5784 5785 5787 5788 5790 5792 5794 5796 5798 5799 5801 5802 5804 5805 5806 5808 5809 5811 5813 5814 5816 5818
5788 5785 5783 5780 5778 5776 5775 5774 5773 5772 5771 5771 5771 5771 5772 5772 5773 5773 5774 5775 5777 5778 5779 5780 5782 5783 5785 5787 5789 5790 5792 5793 5795 5796 5797 5799 5801 5802 5804 5806 5808 5810 5811
5791 5788 5785 5783 5780 5778 5776 5775 5773 5772 5771 5770 5770 5769 5768 5768 5768 5769 5770 5770 5771 5772 5773 5774 5775 5777 5779 5780 5782 5784 5785 5787 5788 5789 5791 5793 5794 5796 5798 5800 5802 5804 5805
5794 5791 5788 5786 5783 5780 5778 5776 5775 5773 5771 5769 5768 5767 5766 5765 5765 5765 5766 5766 5766 5767 5768 5769 5770 5772 5773 5775 5776 5778 5779 5781 5782 5784 5785 5787 5789 5791 5793 5795 5797 5799 5800
5798 5795 5792 5788 5785 5783 5780 5778 5775 5773 5771 5769 5767 5766 5764 5763 5763 5762 5762 5763 5763 5763 5764 5765 5766 5767 5768 5770 5771 5773 5774 5776 5778 5780 5781 5783 5785 5786 5788 5790 5792 5794 5795
5801 5798 5794 5791 5788 5785 5782 5780 5777 5774 5771 5769 5767 5765 5763 5762 5761 5761 5760 5760 5760 5761 5761 5762 5763 5764 5765 5766 5768 5769 5770 5772 5774 5776 5778 5779 5781 5783 5784 5786 5787 5789 5789
5805 5801 5798 5794 5791 5788 5785 5782 5778 5775 5773 5770 5767 5765 5763 5761 5760 5759 5759 5758 5758 5759 5759 5760 5760 5761 5762 5763 5765 5766 5767 5769 5770 5772 5774 5776 5777 5779 5780 5782 5783 5784 5785
5808 5805 5801 5797 5794 5790 5787 5784 5780 5777 5774 5771 5769 5766 5763 5761 5760 5759 5758 5758 5757 5757 5757 5757 5758 5759 5760 5761 5762 5763 5764 5766 5768 5769 5771 5772 5774 5775 5776 5778 5779 5780 5781
5812 5808 5804 5801 5797 5793 5790 5786 5783 5779 5776 5773 5770 5767 5765 5763 5761 5759 5758 5757 5757 5756 5756 5756 5756 5757 5758 5759 5760 5761 5762 5764 5765 5767 5768 5769 5771 5772 5773 5774 5775 5777 5777
5815 5812 5808 5804 5800 5796 5793 5789 5786 5782 5779 5776 5773 5770 5767 5765 5763 5761 5759 5758 5757 5756 5756 5756 5756 5756 5756 5757 5758 5759 5760 5762 5763 5764 5765 5766 5768 5769 5770 5771 5772 5773 5774
5819 5815 5811 5807 5804 5800 5796 5792 5789 5786 5782 5779 5776 5773 5770 5767 5765 5763 5761 5759 5758 5757 5756 5756 5756 5756 5756 5757 5758 5758 5759 5760 5761 5762 5763 5764 5765 5767 5768 5769 5770 5770 5771
5822 5818 5814 5811 5807 5803 5800 5796 5792 5789 5786 5782 5779 5776 5773 5771 5768 5765 5763 5761 5759 5758 5757 5756 5756 5756 5756 5756 5757 5758 5758 5759 5759 5760 5761 5762 5764 5765 5766 5767 5768 5768 5769
5825 5821 5818 5814 5810 5807 5803 5799 5796 5793 5789 5786 5783 5780 5777 5774 5771 5768 5766 5764 5762 5760 5759 5758 5757 5757 5757 5757 5757 5758 5758 5758 5759 5760 5760 5761 5762 5763 5764 5765 5766 5767 5767
5827 5824 5821 5817 5814 5810 5806 5803 5800 5796 5793 5790 5787 5783 5780 5777 5774 5772 5769 5767 5765 5763 5762 5760 5759 5759 5758 5758 5758 5758 5759 5759 5759 5759 5760 5761 5762 5763 5764 5764 5765 5766 5766
5829 5826 5823 5820 5817 5813 5810 5806 5803 5800 5797 5793 5790 5787 5784 5781 5778 5776 5773 5771 5769 5767 5765 5764 5762 5761 5761 5760 5760 5760 5760 5760 5760 5760 5761 5761 5762 5763 5764 5764 5765 5765 5766
5831 5828 5825 5822 5819 5816 5813 5809 5806 5803 5800 5797 5794 5791 5788 5785 5782 5780 5777 5775 5773 5771 5769 5768 5766 5765 5764 5763 5763 5762 5762 5762 5762 5762 5762 5763 5763 5764 5764 5765 5765 5766 5766
5832 5829 5826 5824 5821 5818 5815 5812 5809 5806 5803 5800 5797 5794 5791 5789 5786 5784 5782 5780 5777 5775 5774 5772 5771 5769 5768 5767 5766 5766 5765 5765 5765 5765 5765 5765 5765 5765 5766 5766 5766 5766 5766
5832 5829 5827 5824 5822 5819 5817 5814 5811 5808 5806 5803 5800 5797 5795 5792 5790 5788 5785 5783 5781 5779 5778 5776 5775 5773 5772 5771 5770 5769 5769 5768 5768 5767 5767 5767 5767 5767 5767 5767 5767 5767 5766
5831 5829 5827 5825 5822 5820 5817 5815 5813 5810 5808 5805 5803 5800 5798 5795 5793 5791 5789 5787 5785 5783 5781 5780 5778 5777 5776 5775 5774 5773 5772 5771 5771 5770 5770 5770 5769 5769 5769 5768 5768 5767 5767
5830 5828 5826 5824 5822 5820 5818 5815 5813 5811 5809 5807 5804 5802 5800 5798 5795 5793 5791 5789 5788 5786 5784 5783 5782 5780 5779 5778 5777 5776 5775 5774 5773 5773 5772 5772 5771 5770 5770 5769 5769 5768 5768
5828 5826 5825 5823 5821 5819 5817 5815 5813 5811 5809 5807 5805 5803 5801 5799 5797 5795 5794 5792 5790 5789 5787 5786 5784 5783 5782 5781 5779 5778 5777 5777 5776 5775 5774 5773 5772 5772 5771 5770 5770 5769 5768
5825 5823 5822 5820 5819 5817 5815 5813 5812 5810 5808 5806 5805 5803 5801 5800 5798 5796 5795 5793 5792 5790 5789 5787 5786 5785 5784 5782 5781 5780 5779 5778 5777 5776 5775 5774 5773 5773 5772 5771 5770 5769 5768
5821 5820 5818 5817 5816 5814 5813 5811 5810 5808 5807 5805 5803 5802 5800 5799 5797 5796 5795 5793 5792 5791 5789 5788 5787 5786 5784 5783 5782 5781 5780 5779 5778 5777 5776 5775 5774 5773 5772 5771 5770 5769 5768
5815 5814 5813 5812 5811 5810 5809 5808 5806 5805 5804 5802 5801 5800 5798 5797 5795 5794 5793 5792 5791 5790 5788 5787 5786 5785 5784 5783 5782 5781 5780 5779 5778 5777 5775 5774 5773 5772 5771 5770 5769 5768 5767